[[{"header":{"parameterUnit":"m.s-1","parameterCategory":1,"la1":30.2991,"la2":30.254,"lo1":-89.0895,"lo2":-89.0444,"dy":0.0017,"dx":0.0017,"nx":28,"ny":28,"refTime":"2023-10-05T21:00:00:Z","depth":0,"parameterNumber":2,"parameterNumberName":"U-component_of_WINDS"},"data":[0,0,0,0,0,0,0,0,0,0,0,0,0,0,0,0,0,0,0,0,0,0,0,0,0,0,0,0,0,0,0,0,0,0,0,0,0,0,0,0,0,0,0,0,0,0,0,0,0,0,0,0,0,0,0,0,0,0,-2.7927,-2.7928,0,-2.7956,-2.7957,-2.7957,-2.7919,-2.7917,-2.7916,-2.7915,-2.7943,-2.7945,-2.7947,0,0,0,0,0,0,0,0,0,0,0,0,0,-2.7838,-2.784,-2.7927,-2.7928,-2.7928,-2.7956,-2.7957,-2.7957,-2.7919,-2.7917,-2.7916,-2.7914,-2.7943,-2.7945,-2.7947,0,0,0,0,0,0,0,0,0,0,0,0,0,-2.7873,-2.7841,-2.7927,-2.7912,-2.7911,-2.7956,-2.7957,-2.7957,-2.7919,-2.7917,-2.7915,-2.7913,-2.7942,-2.7945,-2.7948,-2.8008,0,0,-2.7957,-2.7958,0,0,0,0,0,0,0,0,-2.7871,-2.7876,-2.7914,-2.7914,-2.7912,-2.7932,-2.7936,-2.7974,-2.792,-2.7916,-2.7915,-2.7912,-2.7941,-2.7944,-2.7954,-2.8009,-2.8011,-2.7957,-2.7959,-2.7961,-2.7961,0,0,0,0,0,0,0,-2.7869,-2.7875,-2.7939,-2.7915,-2.7914,-2.7904,-2.7907,-2.7943,-2.794,-2.7917,-2.7914,-2.7918,-2.794,-2.7951,-2.7954,-2.8011,-2.7957,-2.796,-2.7962,-2.7963,-2.8117,-2.8119,0,0,0,0,0,0,-2.7868,-2.7873,-2.7938,-2.794,-2.7886,-2.7908,-2.791,-2.7928,-2.7939,-2.7939,-2.792,-2.7916,-2.7947,-2.7951,-2.7955,-2.8026,-2.7961,-2.7963,-2.7965,-2.8115,-2.8118,-2.812,0,0,0,0,0,0,-2.7866,-2.7874,-2.7937,-2.7906,-2.7913,-2.7911,-2.7931,-2.7929,-2.794,-2.7942,-2.7941,-2.7931,-2.7945,-2.7951,-2.7995,-2.8026,-2.7965,-2.7968,-2.8112,-2.8116,-2.8119,-2.8167,0,0,0,0,0,0,-2.7864,-2.7874,-2.7897,-2.7906,-2.7915,-2.7976,-2.7933,-2.7931,-2.7946,-2.7941,-2.7953,-2.7952,-2.7944,-2.7991,-2.7998,-2.8029,-2.797,-2.811,-2.8114,-2.8118,-2.8163,-2.8172,-2.818,0,0,0,0,0,-2.7861,-2.7909,-2.7898,-2.7906,-2.7943,-2.7978,-2.7983,-2.7973,-2.7948,-2.7971,-2.7972,-2.7952,-2.8022,-2.7996,-2.8004,-2.8036,-2.8107,-2.8113,-2.8118,-2.8159,-2.817,-2.818,0,0,0,0,0,0,-2.7902,-2.791,-2.7898,-2.795,-2.7964,-2.7972,-2.7999,-2.7985,-2.8005,-2.8,-2.7987,-2.7989,-2.8037,-2.8041,-2.8011,-2.8095,-2.8061,-2.8068,-2.809,-2.81,-2.8108,-2.8105,-2.7973,0,0,0,0,0,-2.7917,-2.7945,-2.7951,-2.7996,-2.8004,-2.8001,-2.8016,-2.8007,-2.802,-2.8026,-2.803,-2.8044,-2.8069,-2.8085,-2.8108,-2.8165,-2.8166,-2.8191,-2.8199,-2.8206,-2.8211,-2.8241,-2.8252,-2.8137,-2.8137,-2.8137,0,0,-2.7948,-2.7956,-2.7975,-2.8005,-2.8014,-2.8043,-2.8006,-2.8038,-2.8059,-2.803,-2.8072,-2.8076,-2.8091,-2.8141,-2.8163,-2.8146,-2.8244,-2.8213,-2.8218,-2.822,-2.8247,-2.8258,-2.8268,-2.814,-2.814,-2.8139,0,0,-2.802,-2.8029,-2.8068,-2.8079,-2.8094,-2.8092,-2.8102,-2.8112,-2.8114,-2.8156,-2.8135,-2.8161,-2.8204,-2.8215,-2.8226,-2.8304,-2.8286,-2.8312,-2.8355,-2.8384,-2.8393,-2.8401,-2.8427,-2.8437,-2.8318,-2.8318,-2.8318,0,-2.8056,-2.8099,-2.809,-2.8123,-2.8137,-2.8114,-2.8153,-2.8164,-2.8186,-2.8196,-2.8177,-2.8232,-2.824,-2.8292,-2.8311,-2.8322,-2.8331,-2.8309,-2.8393,-2.84,-2.8408,-2.8432,-2.8443,-2.8321,-2.8321,-2.8321,-2.832,0,-2.8143,-2.8173,-2.8203,-2.8225,-2.8242,-2.8278,-2.8274,-2.8293,-2.8284,-2.8285,-2.8328,-2.8337,-2.8362,-2.8374,-2.8365,-2.8426,-2.8414,-2.8395,-2.8359,-2.8422,-2.8445,-2.8454,-2.8326,-2.8324,-2.8324,-2.8323,0,0,-2.8237,-2.8256,-2.8266,-2.8276,-2.8292,-2.8315,-2.8351,-2.8376,-2.8392,-2.8409,-2.8437,-2.8476,-2.8458,-2.8471,-2.8463,-2.8489,-2.8549,-2.8466,-2.8466,-2.8479,-2.8615,-2.8628,-2.8639,-2.8539,-2.854,-2.8542,-2.8613,0,-2.8307,-2.8368,-2.8362,-2.842,-2.8448,-2.8428,-2.8459,-2.8472,-2.8474,-2.8497,-2.85,-2.8526,-2.8501,-2.8509,-2.8534,-2.8536,-2.8576,-2.8532,-2.8564,-2.8565,-2.8558,-2.8651,-2.8665,-2.8731,-2.8622,-2.8624,-2.8625,0,-2.8396,-2.8416,-2.8477,-2.849,-2.8501,-2.8529,-2.8551,-2.8574,-2.859,-2.8589,-2.8605,-2.8593,-2.8629,-2.8596,-2.8645,-2.8615,-2.8628,-2.8632,-2.8634,-2.8635,-2.8596,-2.8652,-2.8752,-2.8762,-2.8639,-2.8638,-2.8637,0,-2.8456,-2.8499,-2.8541,-2.8551,-2.8567,-2.8587,-2.8594,-2.8608,-2.8623,-2.8643,-2.8653,-2.8677,-2.869,-2.8709,-2.8704,-2.8681,-2.8754,-2.872,-2.8753,-2.8753,-2.8767,-2.8765,-2.8869,-2.878,-2.878,-2.878,-2.878,0,-2.8533,-2.8571,-2.8569,-2.8594,-2.8636,-2.8629,-2.8671,-2.8676,-2.8688,-2.8714,-2.87,-2.8724,-2.8718,-2.8743,-2.874,-2.878,-2.8787,-2.8787,-2.8785,-2.8786,-2.8786,-2.8793,-2.8787,-2.8782,-2.8782,-2.8781,-2.8781,0,-2.8606,-2.8607,-2.8651,-2.8663,-2.8667,-2.8697,-2.8707,-2.8732,-2.8733,-2.8767,-2.8774,-2.8777,-2.8805,-2.8804,-2.8836,-2.8834,-2.8883,-2.8877,-2.8878,-2.8875,-2.8908,-2.8904,-2.9017,-2.903,-2.8935,-2.8936,-2.8937,0,-2.8654,-2.8683,-2.8698,-2.8715,-2.8724,-2.8751,-2.8767,-2.8762,-2.878,-2.88,-2.8821,-2.8849,-2.887,-2.8917,-2.8921,-2.8946,-2.8939,-2.8977,-2.8942,-2.8943,-2.8937,-2.8935,-2.8937,-2.8983,-2.8984,-2.8985,-2.8985,0,-2.8738,-2.8737,-2.8761,-2.8785,-2.8805,-2.8823,-2.884,-2.8855,-2.8852,-2.8872,-2.8902,-2.8918,-2.8952,-2.8979,-2.9003,-2.9011,-2.8997,-2.8997,-2.9005,-2.9006,-2.9004,-2.9004,-2.8893,-2.8993,-2.8993,-2.8992,-2.8992,-2.8991,-2.8799,-2.8823,-2.8838,-2.8865,-2.8878,-2.8894,-2.8917,-2.8923,-2.8947,-2.8974,-2.897,-2.9002,-2.9018,-2.9049,-2.9059,-2.9084,-2.9071,-2.9084,-2.9086,-2.9089,-2.9092,-2.9003,-2.9089,-2.9089,-2.9089,-2.9089,-2.9088,0,-2.888,-2.8889,-2.8915,-2.8939,-2.8961,-2.8948,-2.8967,-2.8985,-2.9014,-2.903,-2.9051,-2.9085,-2.9112,-2.912,-2.9145,-2.9164,-2.9159,-2.9171,-2.9168,-2.917,-2.9103,-2.9092,-2.9175,-2.9175,-2.9175,-2.9175,-2.9175,-2.9175,-2.8925,-2.8965,-2.8966,-2.9013,-2.9022,-2.9054,-2.9065,-2.9081,-2.9093,-2.9131,-2.9153,-2.9159,-2.9171,-2.9198,-2.9222,-2.9224,-2.9233,-2.9247,-2.9246,-2.9183,-2.9175,-2.9166,-2.9156,-2.925,-2.925,-2.931,-2.9311,-2.9311]},{"header":{"parameterUnit":"m.s-1","parameterCategory":1,"la1":30.2991,"la2":30.254,"lo1":-89.0895,"lo2":-89.0444,"dy":0.0017,"dx":0.0017,"nx":28,"ny":28,"refTime":"2023-10-05T21:00:00:Z","depth":0,"parameterNumber":3,"parameterNumberName":"V-component_of_WINDS"},"data":[0,0,0,0,0,0,0,0,0,0,0,0,0,0,0,0,0,0,0,0,0,0,0,0,0,0,0,0,0,0,0,0,0,0,0,0,0,0,0,0,0,0,0,0,0,0,0,0,0,0,0,0,0,0,0,0,0,0,1.3558,1.3558,0,1.3578,1.3578,1.3578,1.3571,1.3571,1.3571,1.357,1.3589,1.359,1.3591,0,0,0,0,0,0,0,0,0,0,0,0,0,1.3515,1.3516,1.3558,1.3558,1.3559,1.3578,1.3578,1.3578,1.3571,1.3571,1.357,1.357,1.3589,1.359,1.3591,0,0,0,0,0,0,0,0,0,0,0,0,0,1.3534,1.3516,1.3558,1.3558,1.3558,1.3578,1.3578,1.3578,1.3572,1.3571,1.357,1.357,1.3588,1.359,1.3591,1.3612,0,0,1.3595,1.3596,0,0,0,0,0,0,0,0,1.3533,1.3536,1.3557,1.3558,1.3558,1.3571,1.357,1.359,1.3572,1.3566,1.357,1.3569,1.3584,1.3585,1.359,1.3613,1.3614,1.3595,1.3596,1.3597,1.3597,0,0,0,0,0,0,0,1.3532,1.3535,1.3566,1.3558,1.3558,1.3556,1.3558,1.3573,1.3578,1.3567,1.3566,1.3569,1.3584,1.3589,1.3591,1.3614,1.3595,1.3596,1.3597,1.3598,1.3657,1.3658,0,0,0,0,0,0,1.353,1.3534,1.3565,1.3566,1.3544,1.3558,1.356,1.3568,1.3578,1.3579,1.3569,1.3568,1.3587,1.3589,1.3591,1.3618,1.3597,1.3598,1.3599,1.3656,1.3657,1.3658,0,0,0,0,0,0,1.3529,1.3533,1.3564,1.355,1.3554,1.3559,1.3568,1.3568,1.3574,1.358,1.3581,1.3574,1.3587,1.3589,1.3608,1.3618,1.3599,1.36,1.3655,1.3656,1.3658,1.367,0,0,0,0,0,0,1.3528,1.3533,1.3541,1.355,1.3555,1.358,1.3569,1.3569,1.3576,1.3575,1.3585,1.3586,1.3586,1.3606,1.3609,1.362,1.3601,1.3654,1.3656,1.3657,1.3669,1.3672,1.3674,0,0,0,0,0,1.3527,1.3543,1.3541,1.3545,1.3565,1.3581,1.3583,1.3584,1.3577,1.3585,1.359,1.3585,1.3617,1.3607,1.3611,1.3623,1.3654,1.3655,1.3657,1.3668,1.3671,1.3674,0,0,0,0,0,0,1.3534,1.3544,1.3542,1.3562,1.3571,1.358,1.359,1.3587,1.3598,1.3596,1.3597,1.3599,1.3618,1.3622,1.3612,1.3645,1.3634,1.3637,1.3641,1.3644,1.3647,1.3645,1.3602,0,0,0,0,0,1.3538,1.355,1.3558,1.3575,1.358,1.3584,1.3591,1.3591,1.36,1.3603,1.3609,1.3617,1.3629,1.3637,1.3648,1.367,1.3672,1.368,1.3682,1.3684,1.3686,1.3699,1.3703,1.3664,1.3664,1.3663,0,0,1.3546,1.3553,1.356,1.3577,1.3583,1.3596,1.3587,1.3601,1.361,1.3605,1.3623,1.3628,1.3637,1.3657,1.3666,1.3661,1.3698,1.3686,1.3688,1.3689,1.3701,1.3705,1.3709,1.3665,1.3664,1.3664,0,0,1.3567,1.3573,1.3589,1.3596,1.3607,1.361,1.3614,1.3624,1.3627,1.3645,1.3642,1.3653,1.3673,1.3681,1.3687,1.3714,1.371,1.3718,1.3731,1.3744,1.3747,1.3749,1.376,1.3763,1.372,1.372,1.372,0,1.3575,1.3595,1.3597,1.3611,1.3619,1.3616,1.3632,1.3639,1.3652,1.3658,1.3652,1.3679,1.3685,1.3708,1.3714,1.3719,1.3724,1.3716,1.3746,1.3749,1.3751,1.3761,1.3765,1.372,1.372,1.372,1.372,0,1.3605,1.3619,1.363,1.3645,1.3653,1.3668,1.3673,1.3682,1.3682,1.3686,1.3705,1.3713,1.3726,1.3731,1.3731,1.3754,1.3751,1.3746,1.3735,1.3756,1.3765,1.3769,1.3722,1.3721,1.3721,1.3721,0,0,1.363,1.3647,1.3651,1.3658,1.3671,1.3681,1.3697,1.3711,1.3719,1.3729,1.3742,1.376,1.3756,1.3764,1.3764,1.3775,1.3797,1.3769,1.3769,1.3774,1.3824,1.3829,1.3833,1.3795,1.3796,1.3797,1.3824,0,1.3653,1.368,1.3683,1.3708,1.3722,1.372,1.3734,1.3743,1.3748,1.376,1.3765,1.3778,1.3771,1.3776,1.3787,1.3792,1.3807,1.379,1.3808,1.3808,1.3806,1.3837,1.3841,1.3867,1.3827,1.3828,1.3828,0,1.3682,1.3695,1.3721,1.3734,1.3739,1.3752,1.3766,1.3777,1.3788,1.3791,1.38,1.38,1.3816,1.3806,1.3829,1.3817,1.3825,1.3829,1.383,1.3832,1.382,1.384,1.3875,1.3879,1.3834,1.3834,1.3833,0,1.3699,1.3722,1.3741,1.3747,1.3762,1.3771,1.3777,1.3788,1.3797,1.3809,1.3815,1.3828,1.3836,1.3847,1.385,1.3842,1.3874,1.3863,1.3877,1.3877,1.3883,1.3883,1.392,1.3888,1.3888,1.3888,1.3888,0,1.3724,1.374,1.3749,1.3761,1.3779,1.3783,1.3801,1.3807,1.3817,1.3831,1.383,1.3842,1.3846,1.386,1.3863,1.3882,1.3885,1.3888,1.3889,1.3888,1.3888,1.3893,1.3891,1.3889,1.3888,1.3888,1.3888,0,1.3745,1.3751,1.3772,1.3785,1.3789,1.3802,1.3813,1.3825,1.383,1.3847,1.3851,1.3859,1.3875,1.388,1.3898,1.3901,1.3923,1.3922,1.392,1.392,1.3934,1.3932,1.3975,1.3981,1.3945,1.3945,1.3946,0,1.3761,1.3774,1.3789,1.3798,1.3805,1.382,1.3829,1.3834,1.3843,1.3858,1.3868,1.3884,1.3897,1.3922,1.393,1.3944,1.3944,1.3958,1.3946,1.3946,1.3945,1.3944,1.3946,1.396,1.396,1.3961,1.3961,0,1.3788,1.3791,1.3805,1.3821,1.3832,1.3844,1.3856,1.3864,1.387,1.3881,1.3898,1.3908,1.3928,1.3944,1.3959,1.3966,1.3965,1.3965,1.3969,1.3969,1.3967,1.3969,1.3926,1.3964,1.3963,1.3963,1.3963,1.3963,1.3808,1.382,1.3833,1.3848,1.3858,1.387,1.3882,1.3889,1.3903,1.392,1.3922,1.394,1.3953,1.3973,1.3981,1.3995,1.3991,1.3997,1.3998,1.4,1.4001,1.3965,1.3998,1.3998,1.3998,1.3998,1.3998,0,1.3836,1.3845,1.3859,1.3877,1.3889,1.3888,1.3901,1.3912,1.3928,1.394,1.3953,1.3973,1.3989,1.3998,1.4015,1.4024,1.4024,1.4029,1.4028,1.403,1.4003,1.3999,1.4028,1.4028,1.4028,1.4028,1.4028,1.4028,1.3852,1.3873,1.3877,1.3903,1.3912,1.393,1.3938,1.3949,1.3959,1.3981,1.3995,1.4001,1.4012,1.4029,1.4044,1.4046,1.4053,1.4057,1.4059,1.4035,1.4031,1.4028,1.4024,1.4058,1.4058,1.4084,1.4085,1.4085]}]]